RH
25 27 27 25 29 32 28 21 13 7 6 6 7 9 9 8 9 10 10 12 30 40 58 81 70 53 44 48 30 38 44 63 92 74 57 66 46 42 58 68 77 83 81
32 36 25 23 30 21 15 10 6 6 5 6 6 8 8 8 9 10 10 10 13 25 39 49 58 82 67 75 75 76 58 66 92 75 84 78 74 58 46 59 81 81 85
30 27 28 26 22 21 19 18 11 7 6 5 6 6 8 9 9 10 10 8 8 10 24 33 43 44 51 58 82 79 96 96 95 96 92 87 87 71 52 59 62 82 85
31 30 27 18 11 11 11 10 10 9 7 6 6 6 6 8 9 10 10 9 8 9 10 20 23 18 21 19 41 58 56 69 84 94 95 97 94 78 63 62 67 68 72
30 39 23 9 9 10 8 8 9 8 7 7 6 6 6 7 9 10 10 10 9 8 9 9 9 17 25 20 40 55 64 48 50 65 87 90 96 81 62 56 58 64 68
19 14 10 9 12 9 9 10 11 12 15 15 10 5 6 6 7 9 11 12 12 11 10 10 10 10 11 22 20 20 30 48 50 54 70 79 95 95 74 69 62 56 59
7 7 9 16 13 9 9 10 18 36 40 44 45 30 7 6 6 7 8 10 12 14 16 14 11 10 12 14 14 16 15 16 16 19 33 49 75 88 96 96 96 89 66
7 10 15 18 15 8 12 25 38 37 39 34 38 55 34 16 6 6 7 8 9 11 13 14 14 15 15 14 14 17 14 11 10 10 12 14 18 31 48 41 82 96 95
11 14 15 15 13 10 18 38 40 39 34 33 48 58 57 33 28 15 6 8 8 8 9 10 11 13 14 15 16 15 17 16 13 12 12 10 12 10 10 15 16 18 29
11 15 16 16 10 14 33 41 41 30 35 34 58 63 55 47 42 37 17 9 9 9 9 8 9 10 12 15 15 15 16 19 16 9 11 12 9 12 9 7 6 10 13
11 12 13 15 10 21 26 41 32 40 37 37 42 46 60 64 64 63 62 59 55 51 49 48 42 42 33 20 16 15 14 16 17 17 14 14 13 8 8 6 4 4 5
12 9 11 13 14 22 27 34 27 38 46 42 48 48 41 40 41 45 46 47 49 51 54 58 49 51 56 51 30 25 15 14 14 15 15 17 17 12 7 6 4 4 5
10 9 10 12 17 24 22 22 22 33 48 58 57 47 40 34 36 36 33 32 33 36 40 45 54 52 49 52 53 55 50 32 15 17 19 18 18 17 15 14 12 7 5
11 19 15 12 16 24 21 18 22 28 49 56 56 57 50 42 41 40 35 32 30 30 36 39 41 48 54 57 66 56 60 61 52 35 27 30 28 25 22 22 22 20 17
13 23 20 13 16 25 21 22 29 45 54 62 65 61 58 54 51 47 42 35 26 29 29 32 40 42 43 44 53 74 76 72 74 72 67 50 35 34 33 34 34 30 29
27 32 21 13 16 21 24 29 38 51 48 52 60 61 58 54 48 43 38 30 26 31 31 38 38 38 40 42 50 59 76 82 64 66 70 70 73 66 57 51 47 42 36
43 35 22 14 20 26 28 34 43 56 52 51 61 71 71 72 49 36 38 33 29 34 36 39 39 40 43 52 58 63 73 70 70 74 74 68 64 66 67 66 62 67 79
43 32 20 20 22 29 34 36 57 48 54 58 61 76 82 66 56 39 38 34 32 32 32 31 30 34 36 45 63 71 85 84 88 85 78 70 67 67 71 69 67 67 68
34 30 18 26 24 29 38 40 51 42 54 52 64 82 82 59 64 52 32 26 24 24 29 30 28 33 39 44 59 72 90 92 76 69 70 74 72 75 71 71 71 73 71
15 28 19 26 26 36 39 47 44 44 53 65 69 81 80 76 63 27 29 22 22 23 26 26 28 31 34 38 44 49 46 91 85 85 92 87 90 85 74 73 73 75 84
7 13 17 25 23 31 36 46 52 49 71 69 66 85 87 93 78 38 26 25 22 19 16 14 22 23 42 47 58 46 35 46 99 94 96 98 95 87 80 74 72 62 58
11 11 17 26 22 31 45 54 60 47 65 80 87 84 88 86 63 34 33 26 20 15 13 13 15 29 35 56 56 49 52 42 68 93 92 100 91 90 86 72 53 53 51
18 17 24 27 30 48 57 58 59 46 50 83 88 80 92 69 43 48 41 25 16 13 12 13 15 18 22 30 50 61 63 70 99 98 86 41 58 57 53 46 51 51 58
35 24 28 32 39 52 57 63 58 49 49 65 80 84 82 71 57 48 34 21 14 16 13 12 11 10 12 11 37 54 40 52 56 50 41 28 31 26 21 17 16 19 20
58 46 36 36 33 40 44 52 45 49 51 63 81 70 76 70 67 58 37 18 15 14 14 12 10 9 7 10 21 16 23 28 24 17 9 7 5 5 5 6 7 9 11
64 66 66 62 46 36 37 41 55 55 49 77 81 66 81 72 61 60 46 19 16 16 14 11 8 6 6 8 9 9 9 8 7 5 5 6 6 5 5 8 12 16 12
Wind_Speed
11 12 12 12 12 12 9 9 9 9 9 8 8 8 10 11 11 9 8 7 6 7 5 4 4 5 3 3 5 6 6 7 11 12 8 5 4 3 4 5 5 4 4
10 10 10 10 10 10 10 9 8 7 8 7 6 6 8 9 11 11 10 8 7 6 5 5 4 3 4 6 6 6 7 6 9 10 8 6 11 7 5 6 6 6 4
9 9 9 9 10 10 9 8 8 7 7 7 5 4 3 4 7 10 10 9 9 7 6 6 5 4 3 4 5 8 9 4 6 11 11 13 13 13 8 7 8 7 6
7 7 7 7 9 11 11 9 8 7 6 5 5 5 5 2 3 4 7 8 8 7 6 5 5 5 6 7 6 5 7 9 8 4 3 11 11 14 11 9 8 8 8
3 4 4 8 11 12 10 10 10 9 8 7 6 6 6 6 2 1 2 5 6 6 6 6 6 7 8 9 9 8 6 6 7 8 8 7 13 15 12 11 11 10 10
2 2 5 10 11 13 12 11 10 11 11 10 9 7 7 6 7 7 3 2 3 5 6 6 6 7 9 10 10 11 11 9 6 6 5 5 3 7 10 9 10 10 12
2 4 7 10 11 12 12 12 14 14 15 15 10 10 9 8 8 9 10 7 4 4 6 6 6 7 9 10 11 12 12 13 10 7 5 6 6 6 6 13 11 13 14
5 8 10 12 13 12 12 12 14 15 18 21 18 10 7 8 8 9 9 10 9 8 8 9 9 9 9 10 12 13 13 14 14 12 11 8 8 8 9 7 9 16 13
6 9 12 12 12 10 10 11 13 19 21 22 17 6 4 4 5 7 10 10 10 11 11 12 12 12 12 13 14 15 16 15 16 16 15 15 13 11 12 12 13 13 13
8 11 12 11 11 8 8 10 15 17 21 21 19 13 7 4 6 6 7 9 11 12 14 14 15 17 17 16 15 16 16 16 16 16 15 15 15 16 12 12 14 18 18
10 12 13 12 10 6 8 11 14 13 15 18 19 17 13 9 6 6 8 10 11 12 14 15 17 18 19 20 19 17 17 19 18 18 19 19 18 15 15 13 13 15 15
13 13 13 12 10 7 7 10 14 11 11 11 13 14 13 10 10 10 10 11 12 15 18 18 19 19 19 19 20 22 20 19 20 20 20 22 22 20 17 16 16 16 17
13 12 13 14 9 7 9 10 11 11 11 11 10 11 12 11 10 10 11 13 15 16 16 16 17 17 19 21 23 22 22 23 22 20 20 21 22 25 23 22 20 20 20
13 13 14 14 9 10 9 9 10 11 10 9 9 11 11 9 7 9 11 14 17 18 17 17 19 20 20 21 22 24 23 21 23 22 21 21 24 25 25 27 26 26 24
16 13 16 16 12 10 8 8 10 11 10 8 10 12 12 11 12 14 15 17 20 17 18 20 22 24 25 25 24 26 27 27 25 25 25 26 27 28 29 29 30 30 29
20 14 16 18 15 9 8 8 11 13 15 15 12 13 15 17 17 17 20 22 23 20 18 16 17 19 21 23 24 25 30 31 31 30 29 28 30 31 32 33 35 35 36
22 17 17 19 17 11 9 8 10 14 15 13 12 14 17 20 23 22 20 22 21 20 22 22 21 23 24 24 24 26 28 31 27 28 28 29 30 32 34 32 34 34 37
24 21 20 21 18 14 12 10 11 17 11 13 14 17 18 23 25 25 20 19 22 24 25 26 26 27 28 28 29 28 27 28 27 27 30 32 33 33 32 30 30 31 32
25 24 23 21 20 16 16 13 15 13 11 14 15 17 19 24 27 25 21 22 23 25 27 28 31 33 35 35 33 28 28 29 30 30 32 30 31 36 39 40 40 40 42
26 25 25 24 23 20 18 16 17 17 15 13 16 18 21 22 23 19 20 25 27 27 28 30 32 33 37 35 36 35 34 29 32 40 41 38 37 38 40 44 46 47 46
21 25 28 26 25 22 21 21 21 19 16 14 17 20 22 23 22 21 23 26 28 30 31 32 32 34 38 27 37 37 37 38 36 39 42 42 45 45 46 46 45 45 46
20 23 27 27 26 24 24 25 25 22 22 21 24 22 23 22 22 22 25 26 29 31 32 34 36 34 32 34 41 41 42 39 41 43 48 50 52 48 46 48 49 50 53
24 23 26 28 28 27 28 29 30 24 27 28 30 25 23 23 22 24 27 30 30 30 33 34 37 38 37 38 41 41 44 41 43 50 50 52 49 48 48 48 49 51 53
23 25 29 30 31 33 34 34 34 29 27 33 33 28 28 27 25 26 28 29 29 31 34 36 39 41 43 44 44 45 45 42 44 46 47 47 46 45 45 46 46 46 48
26 23 27 34 36 38 39 39 39 33 32 34 37 30 29 27 27 28 30 31 31 34 35 37 41 43 43 41 41 42 43 41 40 40 42 43 44 44 45 46 48 48 46
35 31 29 29 36 41 44 46 40 37 38 37 33 28 28 31 31 31 31 30 33 35 37 40 42 41 38 39 38 39 39 39 40 39 40 43 46 48 47 44 44 45 46
Wind_Direction
89 85 79 71 68 69 61 54 49 45 55 46 43 40 38 29 23 26 44 38 53 64 54 48 39 41 18 348 342 310 284 284 244 228 231 250 253 239 241 224 204 186 184
91 85 80 68 59 55 45 47 42 34 37 33 32 27 40 21 22 18 22 24 28 40 52 49 49 35 358 353 342 314 278 265 220 222 231 288 251 236 236 238 228 212 189
94 86 75 51 32 21 20 19 20 13 13 8 349 356 21 28 24 13 14 12 24 24 22 11 4 5 351 331 328 341 327 303 212 225 237 273 249 225 220 226 232 239 221
87 79 59 24 6 3 359 0 355 354 352 347 331 317 311 348 28 10 12 13 15 21 17 10 350 336 345 349 351 355 341 338 348 342 320 282 237 210 216 219 226 237 247
97 71 25 347 343 344 350 357 2 351 350 345 323 302 293 294 277 265 347 4 7 1 1 1 357 338 329 337 343 334 329 326 332 339 353 351 241 198 209 219 224 233 243
120 355 346 333 342 352 360 2 1 360 358 353 340 315 288 274 272 271 244 263 334 351 349 343 341 334 332 322 326 327 326 318 315 313 325 10 320 235 208 232 237 237 249
323 334 331 327 351 353 357 356 353 356 353 351 329 311 297 281 267 266 271 270 257 282 306 318 322 322 324 317 311 312 314 311 309 302 298 306 317 303 286 230 234 243 237
306 323 328 335 346 347 352 355 350 350 351 348 341 320 289 285 279 265 268 266 269 263 271 285 290 295 300 301 299 298 298 301 305 305 300 287 287 281 273 269 262 258 244
302 324 342 336 333 339 344 350 352 349 360 2 9 351 316 302 311 306 285 284 280 282 284 285 285 288 294 295 296 300 295 294 296 299 302 303 294 288 286 278 262 257 262
300 324 343 336 319 327 337 344 344 351 0 19 22 30 18 357 337 329 320 305 298 290 290 293 296 298 294 285 285 288 292 295 294 294 296 298 294 280 274 281 287 272 260
297 319 338 326 313 315 330 347 344 357 11 27 33 33 35 29 12 346 329 322 315 311 305 304 300 295 290 288 287 281 278 280 282 283 283 285 291 287 285 279 287 293 291
291 314 329 312 304 306 324 339 333 343 6 10 14 17 18 24 15 357 344 329 318 305 300 302 306 305 301 296 285 286 283 277 276 276 276 276 275 275 274 276 270 269 276
283 307 314 302 295 298 321 322 323 336 344 356 360 14 14 9 12 10 2 351 339 325 315 308 303 302 300 299 298 288 278 279 277 274 273 269 271 274 273 272 269 265 261
273 294 297 291 271 291 306 323 325 338 346 350 358 8 5 360 357 359 355 355 343 335 325 316 309 301 296 290 288 292 290 281 278 276 269 263 263 262 265 269 269 270 267
258 270 285 284 266 278 297 324 338 337 342 4 12 10 8 357 340 337 333 337 338 325 322 318 311 312 311 308 299 284 285 284 277 275 273 270 265 263 262 262 264 265 265
256 258 270 271 261 259 283 306 317 314 315 320 339 348 349 346 345 335 331 332 336 339 336 329 319 312 314 311 303 297 288 285 284 278 275 272 269 267 268 267 266 264 263
254 250 254 255 257 251 265 290 295 308 306 312 325 335 344 349 346 341 334 332 334 336 340 335 329 323 318 313 308 301 293 286 274 275 278 280 278 277 280 275 273 268 264
243 242 242 239 252 253 260 270 282 294 297 306 321 328 338 341 345 345 344 342 345 345 342 332 326 316 310 307 307 300 296 283 280 281 276 277 277 275 270 273 271 269 271
238 239 237 237 245 249 261 270 287 295 295 307 320 328 340 342 341 344 346 356 349 339 333 324 318 311 306 309 306 306 307 282 273 275 284 276 273 270 269 274 275 278 277
239 235 230 237 241 247 255 263 281 283 292 304 324 324 338 338 344 345 347 351 343 332 325 325 319 312 312 305 306 304 307 276 278 280 283 282 285 284 278 276 276 280 282
256 234 232 239 243 247 258 268 281 286 294 304 311 315 328 333 332 338 342 341 339 331 324 320 317 313 319 297 307 300 300 291 285 289 285 282 285 295 290 291 288 287 285
256 252 240 241 247 252 263 272 278 279 285 296 304 306 315 325 328 334 337 332 332 326 322 320 318 313 310 296 300 295 295 290 287 283 281 295 298 296 290 289 287 284 281
263 260 254 247 250 253 259 266 271 277 291 293 296 298 308 322 325 331 330 326 324 328 322 321 317 314 313 302 299 296 299 293 288 290 291 299 301 301 295 290 285 282 280
265 260 262 254 251 252 256 260 269 271 284 290 297 302 308 309 320 327 325 322 320 323 324 320 316 314 312 309 304 301 302 299 298 298 298 298 297 296 294 290 286 282 280
266 267 263 258 255 250 253 258 268 268 279 284 287 287 291 304 312 323 323 317 319 318 320 319 317 314 312 309 307 309 310 309 309 306 304 303 300 297 293 288 284 281 278
260 259 260 262 259 257 255 260 264 266 276 283 287 282 289 297 310 318 317 317 313 314 318 317 315 314 314 312 316 316 314 313 311 309 310 311 307 303 299 294 288 284 281